STARLINK-4281, 53017

Orbit data source: Space-Track

STARLINK-4281, 53017 is a payload satellite owned by SpaceX/Seattle (US) in LEO that was launched on Thu, 07 Jul 2022 UTC via an FALCON 9 launch vehicle from the Air Force Eastern Test Range (AFETR). Payload-class satellites include a variety of spacecraft equipped with specific instruments for various scientific and technological missions. These include communications satellites like Starlink; space stations such as the ISS; scientific satellites like the Hubble; Earth observation satellites from companies like Planet Labs, Umbra, and HawkEye 360; GPS; miniature CubeSats for education and research; and military/defense satellites.

Loading next visibility...
Identifier
53017, 2022-076AH
Orbit
LEO
Country
Flag of USUS
Related business
Manufacturer
SpaceX/Seattle
Mission
Operational Commercial Communications
Bus & Motor
STARLINK, Unknown motor
Mass
297 kg wet, ~275 kg dry
Launch date (UTC)
2022-07-07 (3 years ago)
Launch vehicle
FALCON 9
Launch site
Air Force Eastern Test Range (AFETR)
Object type
Payload
Rocket body
Debris
Shape & HBR
Box + 1 Pan, 10.1 m
Radar Cross Section
13.562 m², Large (>1 m²)

Expand to show TLE details & history
Last TLE update: 15 hours ago

TLE from 15 hours ago
0 STARLINK-4281
1 53017U 22076AH  25341.14556780 -.00000034  00000-0  15942-4 0  9997
2 53017  53.2180 139.5655 0001161  89.0295 271.0830 15.08836314189023
Epoch: 2025-12-07T03:29Z
TLE epoch observation values (Epoch: 2025-12-07T03:29:37.057Z)
Latitude
-0.00006°
Longitude
10.9979°
Altitude
540.637 km
Speed
7.593 km/s
True Right ascension
09h 18m 15s
True Declination
0° 00' 00"
Sunlit
Object was in daylight at epoch
Visualization orbit readout
Latitude
Unknown
Longitude
Unknown
Altitude
Unknown
Speed
Unknown
Apparent Right ascension
Unknown
Apparent Declination
Unknown
Sunlit
N/A
Visualization observer readout
Local Sidereal Time
16:43:02
Azimuth
Unknown
Elevation
Unknown
Doppler factor
Unknown
Orbital elements
Apogee altitude
540.803 km
Perigee altitude
539.196 km
Semi-major axis
6,918.136 km
Eccentricity
0.00012
Inclination
53.218°
RAAN
139.5655°
Arg. of periapsis
89.0295°
True anomaly
271.0697°
Mean anomaly
271.083°
Eccentric anomaly
271.07635°
Mean motion
3.77189 °/min
Orbital period
95.44 mins
BSTAR
0.000015942
Loading maneuver chart data...
Computing Atmospheric mass density...
Loading historical data...
Loading historical data...
Loading historical data...
Loading historical data...
Loading historical data...
Loading historical data...
Loading historical data...

Documentation

Showing up to 5 results
|